| time (UTC) | temp F | wind direction | speed MPH | gust MPH | rain 1hr in | rain 24hr in | rain mn in | humidity % | barometer mb |
| 20260503201113 | 64 | 326 | 5.0 | 15.0 | 0.00 | 0.00 | 0.00 | 100 | |
| 20260503200613 | 64 | 300 | 3.0 | 18.0 | 0.00 | 0.00 | 0.00 | 100 | |
| 20260503200113 | 63 | 305 | 7.0 | 18.0 | 0.00 | 0.00 | 0.00 | 100 | |
| 20260503195613 | 63 | 312 | 6.0 | 15.0 | 0.00 | 0.00 | 0.00 | 100 | |
| 20260503195113 | 64 | 289 | 11.0 | 15.0 | 0.00 | 0.00 | 0.00 | 100 | |
| 20260503194613 | 64 | 296 | 6.0 | 13.0 | 0.00 | 0.00 | 0.00 | 100 | |
| 20260503194113 | 64 | 317 | 8.0 | 12.0 | 0.00 | 0.00 | 0.00 | 100 | |
| 20260503193613 | 64 | 282 | 7.0 | 14.0 | 0.00 | 0.00 | 0.00 | 100 | |
| 20260503193113 | 63 | 298 | 7.0 | 14.0 | 0.00 | 0.00 | 0.00 | 100 | |
| 20260503192613 | 64 | 324 | 3.0 | 12.0 | 0.00 | 0.00 | 0.00 | 100 | |
| 20260503192113 | 64 | 285 | 3.0 | 13.0 | 0.00 | 0.00 | 0.00 | 100 | |
| 20260503191613 | 63 | 305 | 11.0 | 12.0 | 0.00 | 0.00 | 0.00 | 100 | |
| 20260503191113 | 63 | 298 | 8.0 | 14.0 | 0.00 | 0.00 | 0.00 | 100 | |
| 20260503190613 | 63 | 307 | 4.0 | 12.0 | 0.00 | 0.00 | 0.00 | 100 | |
| 20260503190113 | 64 | 302 | 8.0 | 13.0 | 0.00 | 0.00 | 0.00 | 100 | |
| 20260503185613 | 63 | 291 | 4.0 | 9.0 | 0.00 | 0.00 | 0.00 | 100 | |
| 20260503185113 | 63 | 299 | 7.0 | 15.0 | 0.00 | 0.00 | 0.00 | 100 | |
| 20260503184613 | 63 | 310 | 4.0 | 13.0 | 0.00 | 0.00 | 0.00 | 100 | |
| 20260503184113 | 63 | 240 | 8.0 | 10.0 | 0.00 | 0.00 | 0.00 | 100 | |
| 20260503183613 | 62 | 312 | 6.0 | 10.0 | 0.00 | 0.00 | 0.00 | 100 | |
| 20260503183113 | 62 | 298 | 5.0 | 11.0 | 0.00 | 0.00 | 0.00 | 100 | |
| 20260503182613 | 62 | 309 | 7.0 | 12.0 | 0.00 | 0.00 | 0.00 | 100 | |
| 20260503182113 | 62 | 288 | 6.0 | 18.0 | 0.00 | 0.00 | 0.00 | 100 | |
| 20260503181613 | 63 | 271 | 2.0 | 13.0 | 0.00 | 0.00 | 0.00 | 100 | |
| 20260503181113 | 62 | 312 | 8.0 | 12.0 | 0.00 | 0.00 | 0.00 | 100 | |
| 20260503180614 | 63 | 295 | 5.0 | 10.0 | 0.00 | 0.00 | 0.00 | 100 | |
| 20260503180113 | 61 | 324 | 7.0 | 13.0 | 0.00 | 0.00 | 0.00 | 100 | |
| 20260503175614 | 62 | 299 | 9.0 | 12.0 | 0.00 | 0.00 | 0.00 | 100 | |
| 20260503175114 | 61 | 329 | 7.0 | 10.0 | 0.00 | 0.00 | 0.00 | 100 | |
| 20260503174614 | 61 | 288 | 8.0 | 13.0 | 0.00 | 0.00 | 0.00 | 100 | |
| 20260503174114 | 60 | 291 | 6.0 | 12.0 | 0.00 | 0.00 | 0.00 | 100 | |
| 20260503173614 | 61 | 302 | 1.0 | 11.0 | 0.00 | 0.00 | 0.00 | 100 | |
| 20260503173114 | 60 | 293 | 5.0 | 10.0 | 0.00 | 0.00 | 0.00 | 100 | |
| 20260503172614 | 60 | 305 | 3.0 | 9.0 | 0.00 | 0.00 | 0.00 | 100 | |
| 20260503172114 | 61 | 302 | 6.0 | 13.0 | 0.00 | 0.00 | 0.00 | 100 | |
| 20260503171614 | 61 | 278 | 11.0 | 16.0 | 0.00 | 0.00 | 0.00 | 100 | |
| 20260503171114 | 61 | 129 | 0.0 | 13.0 | 0.00 | 0.00 | 0.00 | 100 | |
| 20260503170614 | 61 | 306 | 9.0 | 10.0 | 0.00 | 0.00 | 0.00 | 100 | |
| 20260503170114 | 59 | 302 | 5.0 | 14.0 | 0.00 | 0.00 | 0.00 | 100 | |
| 20260503160114 | 59 | 307 | 3.0 | 9.0 | 0.00 | 0.00 | 0.00 | 100 | |
| 20260503150614 | 56 | 284 | 3.0 | 10.0 | 0.00 | 0.00 | 0.00 | 100 | |
| 20260503150114 | 56 | 303 | 1.0 | 11.0 | 0.00 | 0.00 | 0.00 | 100 | |
| 20260503140114 | 55 | 300 | 5.0 | 8.0 | 0.00 | 0.00 | 0.00 | 100 | |
| 20260503131114 | 52 | 281 | 1.0 | 6.0 | 0.00 | 0.00 | 0.00 | 100 | |
| 20260503130614 | 51 | 300 | 5.0 | 5.0 | 0.00 | 0.00 | 0.00 | 100 | |
| 20260503130114 | 51 | 300 | 0.0 | 6.0 | 0.00 | 0.00 | 0.00 | 100 | |
| 20260503120114 | 46 | 282 | 3.0 | 6.0 | 0.00 | 0.00 | 0.00 | 100 | |
| 20260503110614 | 38 | 282 | 2.0 | 2.0 | 0.00 | 0.00 | 0.00 | 100 | |
| 20260503110114 | 36 | 296 | 2.0 | 2.0 | 0.00 | 0.00 | 0.00 | 100 | |
| 20260503100114 | 35 | 277 | 0.0 | 2.0 | 0.00 | 0.00 | 0.00 | 100 | |
| 20260503090114 | 36 | 293 | 1.0 | 2.0 | 0.00 | 0.00 | 0.00 | 100 | |
| 20260503081614 | 35 | 270 | 1.0 | 2.0 | 0.00 | 0.00 | 0.00 | 100 | |
| 20260503081114 | 35 | 296 | 1.0 | 2.0 | 0.00 | 0.00 | 0.00 | 100 | |
| 20260503080614 | 35 | 272 | 0.0 | 1.0 | 0.00 | 0.00 | 0.00 | 100 | |
| 20260503080114 | 35 | 282 | 1.0 | 2.0 | 0.00 | 0.00 | 0.00 | 100 | |
| 20260503072614 | 35 | 285 | 0.0 | 1.0 | 0.00 | 0.00 | 0.00 | 100 | |
| 20260503072114 | 35 | 264 | 0.0 | 0.0 | 0.00 | 0.00 | 0.00 | 100 | |
| 20260503071614 | 34 | 264 | 0.0 | 0.0 | 0.00 | 0.00 | 0.00 | 100 | |
| 20260503071114 | 35 | 264 | 0.0 | 0.0 | 0.00 | 0.00 | 0.00 | 100 | |
| 20260503070614 | 35 | 264 | 0.0 | 0.0 | 0.00 | 0.00 | 0.00 | 100 | |
| 20260503070114 | 36 | 264 | 0.0 | 0.0 | 0.00 | 0.00 | 0.00 | 100 | |
| 20260503060114 | 36 | 35 | 0.0 | 0.0 | 0.00 | 0.00 | 0.00 | 100 | |
| 20260503055114 | 37 | 35 | 0.0 | 0.0 | 0.00 | 0.00 | 0.00 | 100 | |
| 20260503054614 | 37 | 35 | 0.0 | 0.0 | 0.00 | 0.00 | 0.00 | 100 | |
| 20260503054114 | 37 | 35 | 0.0 | 0.0 | 0.00 | 0.00 | 0.00 | 100 | |
| 20260503053614 | 37 | 35 | 0.0 | 0.0 | 0.00 | 0.00 | 0.00 | 100 | |
| 20260503053114 | 37 | 35 | 0.0 | 0.0 | 0.00 | 0.00 | 0.00 | 100 | |
| 20260503052614 | 37 | 35 | 0.0 | 0.0 | 0.00 | 0.00 | 0.00 | 100 | |
| 20260503052114 | 37 | 35 | 0.0 | 0.0 | 0.00 | 0.00 | 0.00 | 100 | |
| 20260503051614 | 38 | 35 | 0.0 | 0.0 | 0.00 | 0.00 | 0.00 | 100 | |
| 20260503051114 | 38 | 35 | 0.0 | 0.0 | 0.00 | 0.00 | 0.00 | 100 | |
| 20260503050614 | 39 | 35 | 0.0 | 0.0 | 0.00 | 0.00 | 0.00 | 100 | |
| 20260503050114 | 40 | 35 | 0.0 | 0.0 | 0.00 | 0.00 | 0.00 | 100 | |
| 20260503045614 | 40 | 35 | 0.0 | 0.0 | 0.00 | 0.00 | 0.00 | 100 | |
| 20260503045114 | 41 | 35 | 0.0 | 0.0 | 0.00 | 0.00 | 0.00 | 100 | |
| 20260503044614 | 42 | 35 | 0.0 | 1.0 | 0.00 | 0.00 | 0.00 | 100 | |
| 20260503044114 | 42 | 61 | 0.0 | 1.0 | 0.00 | 0.00 | 0.00 | 100 | |
| 20260503043614 | 42 | 78 | 0.0 | 1.0 | 0.00 | 0.00 | 0.00 | 100 | |
| 20260503043114 | 43 | 29 | 0.0 | 0.0 | 0.00 | 0.00 | 0.00 | 100 | |
| 20260503042614 | 44 | 29 | 0.0 | 2.0 | 0.00 | 0.00 | 0.00 | 100 | |
| 20260503042114 | 44 | 340 | 0.0 | 2.0 | 0.00 | 0.00 | 0.00 | 100 | |
| 20260503041614 | 43 | 45 | 1.0 | 4.0 | 0.00 | 0.00 | 0.00 | 100 | |
| 20260503041114 | 44 | 12 | 2.0 | 5.0 | 0.00 | 0.00 | 0.00 | 100 | |
| 20260503040614 | 45 | 49 | 2.0 | 7.0 | 0.00 | 0.00 | 0.00 | 100 | |
| 20260503040114 | 44 | 57 | 3.0 | 4.0 | 0.00 | 0.00 | 0.00 | 100 | |
| 20260503035614 | 44 | 42 | 0.0 | 5.0 | 0.00 | 0.00 | 0.00 | 100 | |
| 20260503035114 | 45 | 35 | 2.0 | 5.0 | 0.00 | 0.00 | 0.00 | 100 | |
| 20260503034614 | 45 | 57 | 4.0 | 5.0 | 0.00 | 0.00 | 0.00 | 100 | |
| 20260503034114 | 44 | 16 | 3.0 | 6.0 | 0.00 | 0.00 | 0.00 | 100 | |
| 20260503033614 | 44 | 28 | 3.0 | 4.0 | 0.00 | 0.00 | 0.00 | 100 | |
| 20260503033114 | 44 | 37 | 2.0 | 4.0 | 0.00 | 0.00 | 0.00 | 100 | |
| 20260503032614 | 44 | 28 | 0.0 | 2.0 | 0.00 | 0.00 | 0.00 | 100 | |
| 20260503032114 | 44 | 11 | 0.0 | 4.0 | 0.00 | 0.00 | 0.00 | 100 | |
| 20260503031614 | 44 | 12 | 0.0 | 0.0 | 0.00 | 0.00 | 0.00 | 100 | |
| 20260503031114 | 44 | 70 | 0.0 | 2.0 | 0.00 | 0.00 | 0.00 | 100 | |
| 20260503030614 | 45 | 11 | 0.0 | 1.0 | 0.00 | 0.00 | 0.00 | 100 | |
| 20260503030114 | 45 | 23 | 0.0 | 1.0 | 0.00 | 0.00 | 0.00 | 100 | |
| 20260503025614 | 46 | 36 | 0.0 | 2.0 | 0.00 | 0.00 | 0.00 | 100 | |
| 20260503025114 | 45 | 5 | 0.0 | 2.0 | 0.00 | 0.00 | 0.00 | 100 | |
| 20260503024614 | 45 | 11 | 0.0 | 2.0 | 0.00 | 0.00 | 0.00 | 100 | |
| 20260503024114 | 46 | 11 | 0.0 | 3.0 | 0.00 | 0.00 | 0.00 | 100 | |
| 20260503023614 | 46 | 15 | 0.0 | 2.0 | 0.00 | 0.00 | 0.00 | 100 | |
| 20260503023114 | 47 | 355 | 1.0 | 3.0 | 0.00 | 0.00 | 0.00 | 100 | |
| 20260503022614 | 46 | 18 | 2.0 | 3.0 | 0.00 | 0.00 | 0.00 | 100 | |
| 20260503022114 | 45 | 57 | 0.0 | 1.0 | 0.00 | 0.00 | 0.00 | 100 | |
| 20260503021614 | 47 | 39 | 0.0 | 0.0 | 0.00 | 0.00 | 0.00 | 100 | |
| 20260503021114 | 47 | 39 | 0.0 | 2.0 | 0.00 | 0.00 | 0.00 | 100 | |
| 20260503020614 | 47 | 47 | 1.0 | 2.0 | 0.00 | 0.00 | 0.00 | 100 | |
| 20260503020114 | 48 | 25 | 1.0 | 2.0 | 0.00 | 0.00 | 0.00 | 100 | |
| 20260503015614 | 48 | 47 | 2.0 | 3.0 | 0.00 | 0.00 | 0.00 | 100 | |
| 20260503015114 | 48 | 14 | 0.0 | 2.0 | 0.00 | 0.00 | 0.00 | 100 | |
| 20260503014614 | 48 | 7 | 0.0 | 1.0 | 0.00 | 0.00 | 0.00 | 100 | |
| 20260503014114 | 48 | 23 | 0.0 | 1.0 | 0.00 | 0.00 | 0.00 | 100 | |
| 20260503013614 | 48 | 11 | 0.0 | 1.0 | 0.00 | 0.00 | 0.00 | 100 | |
| 20260503013114 | 48 | 16 | 0.0 | 4.0 | 0.00 | 0.00 | 0.00 | 100 | |
| 20260503012614 | 49 | 340 | 1.0 | 3.0 | 0.00 | 0.00 | 0.00 | 100 | |
| 20260503012114 | 48 | 351 | 0.0 | 3.0 | 0.00 | 0.00 | 0.00 | 100 | |
| 20260503011614 | 49 | 28 | 2.0 | 3.0 | 0.00 | 0.00 | 0.00 | 100 | |
| 20260503011114 | 49 | 7 | 0.0 | 5.0 | 0.00 | 0.00 | 0.00 | 100 | |
| 20260503010614 | 49 | 327 | 3.0 | 4.0 | 0.00 | 0.00 | 0.00 | 100 | |
| 20260503010114 | 50 | 19 | 0.0 | 1.0 | 0.00 | 0.00 | 0.00 | 100 | |
| 20260503005614 | 50 | 18 | 0.0 | 1.0 | 0.00 | 0.00 | 0.00 | 100 | |
| 20260503005114 | 49 | 1 | 1.0 | 2.0 | 0.00 | 0.00 | 0.00 | 100 | |
| 20260503004614 | 50 | 4 | 1.0 | 4.0 | 0.00 | 0.00 | 0.00 | 100 | |
| 20260503004114 | 50 | 22 | 0.0 | 2.0 | 0.00 | 0.00 | 0.00 | 100 | |
| 20260503003614 | 50 | 42 | 0.0 | 3.0 | 0.00 | 0.00 | 0.00 | 100 | |
| 20260503003114 | 50 | 19 | 0.0 | 6.0 | 0.00 | 0.00 | 0.00 | 100 | |
| 20260503002614 | 50 | 315 | 2.0 | 6.0 | 0.00 | 0.00 | 0.00 | 100 | |
| 20260503002114 | 50 | 7 | 4.0 | 5.0 | 0.00 | 0.00 | 0.00 | 100 | |
| 20260503001614 | 52 | 350 | 3.0 | 4.0 | 0.00 | 0.00 | 0.00 | 100 | |
| 20260503001114 | 51 | 350 | 1.0 | 6.0 | 0.00 | 0.00 | 0.00 | 100 | |
| 20260503000614 | 51 | 45 | 3.0 | 7.0 | 0.00 | 0.00 | 0.00 | 100 | |
| 20260503000114 | 52 | 358 | 3.0 | 7.0 | 0.00 | 0.00 | 0.00 | 100 | |
| 20260502235614 | 51 | 352 | 5.0 | 6.0 | 0.00 | 0.00 | 0.00 | 100 | |
| 20260502235114 | 52 | 343 | 4.0 | 6.0 | 0.00 | 0.00 | 0.00 | 100 | |
| 20260502234614 | 52 | 351 | 2.0 | 6.0 | 0.00 | 0.00 | 0.00 | 100 | |
| 20260502234114 | 52 | 347 | 6.0 | 7.0 | 0.00 | 0.00 | 0.00 | 100 | |
| 20260502233614 | 52 | 11 | 2.0 | 8.0 | 0.00 | 0.00 | 0.00 | 100 | |
| 20260502233114 | 53 | 307 | 2.0 | 9.0 | 0.00 | 0.00 | 0.00 | 100 | |
| 20260502232614 | 54 | 340 | 3.0 | 9.0 | 0.00 | 0.00 | 0.00 | 100 | |
| 20260502232114 | 57 | 341 | 4.0 | 8.0 | 0.00 | 0.00 | 0.00 | 100 | |
| 20260502231614 | 56 | 358 | 6.0 | 9.0 | 0.00 | 0.00 | 0.00 | 100 | |
| 20260502231114 | 55 | 345 | 4.0 | 9.0 | 0.00 | 0.00 | 0.00 | 100 | |
| 20260502230614 | 54 | 354 | 8.0 | 11.0 | 0.00 | 0.00 | 0.00 | 100 | |
| 20260502230114 | 54 | 9 | 8.0 | 12.0 | 0.00 | 0.00 | 0.00 | 100 | |
| 20260502225614 | 55 | 358 | 4.0 | 10.0 | 0.00 | 0.00 | 0.00 | 100 | |
| 20260502225114 | 57 | 330 | 0.0 | 7.0 | 0.00 | 0.00 | 0.00 | 100 | |
| 20260502224614 | 57 | 358 | 6.0 | 8.0 | 0.00 | 0.00 | 0.00 | 100 | |
| 20260502224114 | 55 | 316 | 2.0 | 10.0 | 0.00 | 0.00 | 0.00 | 100 | |
| 20260502223614 | 55 | 350 | 3.0 | 10.0 | 0.00 | 0.00 | 0.00 | 100 | |
| 20260502223114 | 55 | 358 | 3.0 | 5.0 | 0.00 | 0.00 | 0.00 | 100 | |
| 20260502222614 | 55 | 0 | 3.0 | 7.0 | 0.00 | 0.00 | 0.00 | 100 | |
| 20260502222114 | 54 | 338 | 3.0 | 10.0 | 0.00 | 0.00 | 0.00 | 100 | |
| 20260502221614 | 54 | 8 | 5.0 | 7.0 | 0.00 | 0.00 | 0.00 | 100 | |
| 20260502221114 | 54 | 26 | 0.0 | 8.0 | 0.00 | 0.00 | 0.00 | 100 | |
| 20260502220614 | 54 | 46 | 3.0 | 11.0 | 0.00 | 0.00 | 0.00 | 100 | |
| 20260502220114 | 54 | 19 | 8.0 | 8.0 | 0.00 | 0.00 | 0.00 | 100 | |
| 20260502215614 | 56 | 358 | 6.0 | 9.0 | 0.00 | 0.00 | 0.00 | 100 | |
| 20260502215114 | 55 | 313 | 3.0 | 9.0 | 0.00 | 0.00 | 0.00 | 100 | |
| 20260502214614 | 55 | 358 | 5.0 | 9.0 | 0.00 | 0.00 | 0.00 | 100 | |
| 20260502214114 | 55 | 33 | 4.0 | 9.0 | 0.00 | 0.00 | 0.00 | 100 | |
| 20260502213614 | 56 | 322 | 5.0 | 10.0 | 0.00 | 0.00 | 0.00 | 100 | |
| 20260502213114 | 55 | 15 | 5.0 | 11.0 | 0.00 | 0.00 | 0.00 | 100 | |
| 20260502212614 | 54 | 7 | 6.0 | 8.0 | 0.00 | 0.00 | 0.00 | 100 | |
| 20260502212114 | 53 | 4 | 1.0 | 8.0 | 0.00 | 0.00 | 0.00 | 100 | |
| 20260502211614 | 54 | 341 | 4.0 | 11.0 | 0.00 | 0.00 | 0.00 | 100 | |
| 20260502211114 | 53 | 354 | 1.0 | 11.0 | 0.00 | 0.00 | 0.00 | 100 | |
| 20260502210614 | 53 | 47 | 2.0 | 10.0 | 0.00 | 0.00 | 0.00 | 100 | |
| 20260502210114 | 53 | 338 | 8.0 | 10.0 | 0.00 | 0.00 | 0.00 | 100 | |
| 20260502205614 | 53 | 66 | 8.0 | 10.0 | 0.00 | 0.00 | 0.00 | 100 | |
| 20260502205114 | 53 | 64 | 6.0 | 11.0 | 0.00 | 0.00 | 0.00 | 100 | |
| 20260502204614 | 55 | 8 | 3.0 | 7.0 | 0.00 | 0.00 | 0.00 | 100 | |
| 20260502204114 | 56 | 326 | 3.0 | 5.0 | 0.00 | 0.00 | 0.00 | 100 | |
| 20260502203614 | 55 | 351 | 3.0 | 6.0 | 0.00 | 0.00 | 0.00 | 100 | |
| 20260502203114 | 55 | 299 | 1.0 | 8.0 | 0.00 | 0.00 | 0.00 | 100 | |
| 20260502202614 | 56 | 357 | 2.0 | 7.0 | 0.00 | 0.00 | 0.00 | 100 | |
| 20260502202114 | 57 | 317 | 7.0 | 7.0 | 0.00 | 0.00 | 0.00 | 100 | |
| 20260502201614 | 57 | 343 | 2.0 | 10.0 | 0.00 | 0.00 | 0.00 | 100 |